Location: Unspecified
(41.1637°N, 24.2901°E)
Time: 14:15:51
(UTC+01:00)

ISS - Pass Details

Date: 05 December 2025
Orbit: 416 x 421 km, 51.6° (Epoch: 07 December)

Event Time Altitude Azimuth Distance (km) Brightness Sun altitude
Rises 16:52:16 0° 285° (WNW) 2,362 1.0 -10.8°
Reaches altitude 10° 16:55:55 10° 244° (WSW) 1,491 0.6 -11.4°
Maximum altitude 16:56:37 11° 232° (SW) 1,459 0.3 -11.5°
Drops below altitude 10° 16:57:18 10° 220° (SW) 1,488 0.0 -11.6°
Sets 17:00:57 0° 178° (S) 2,342 0.3 -12.3°
